Flag for Swaziland Weather past 2 weeks in Mbabane, Swaziland

Now
73 °F

Passing clouds.


Feels Like: 76 °F
Forecast: 54 / 61 °F
Wind: 9 mph from Southeast

Location: Maputo / Mavalane

Current Time: Oct 25, 2014 at 8:02:00 PM

Latest Report: Oct 25, 2014 at 7:00 PM


Visibility: N/A

Pressure: 30.07 "Hg

Humidity: 65%

Dew point: 61 °F

Location of MbabaneLocation

Historic Weather in Mbabane — Graph

°F

Mbabane temperature yesterday

Maximum temperature yesterday: 82 °F (at 11:00 AM)
Minimum temperature yesterday: 66 °F (at 6:00 AM)
Average temperature yesterday: 74 °F

Past Weeks' High & Low Weather Summary

 TemperatureHumidityPressure
High88 °F (Oct 12, 1:00 PM)100% (Oct 10, 11:00 PM)30.30 "Hg (Oct 10, 11:00 PM)
Low59 °F (Oct 19, 5:00 AM)32% (Oct 17, 4:00 PM)29.59 "Hg (Oct 16, 8:00 PM)
Average72 °F68%30.03 "Hg
* Reported Oct 10 7:00 PM — Oct 25 7:00 PM, Mbabane, Weather by CustomWeather, © 2014

Note: Actual official high and low records may vary slightly from our data, if they occured in-between our weather recording intervals... More about our weather records

Advertising

Mbabane weather history for previous 24 hours

 ConditionsComfort  
Time TempWeatherWind HumidityBarometerVisibility
7:00 PM
Oct 25
73 °FPassing clouds.9 mph65%30.07 "HgN/A
6:00 PM73 °FPassing clouds.12 mph65%30.07 "HgN/A
5:00 PM79 °FPassing clouds.14 mph54%30.04 "HgN/A
4:00 PM77 °FPassing clouds.14 mph57%30.04 "HgN/A
3:00 PM81 °FPassing clouds.14 mph48%30.04 "HgN/A
2:00 PM81 °FPassing clouds.16 mph45%30.04 "HgN/A
1:00 PM81 °FScattered clouds.13 mph54%30.07 "HgN/A
12:00 PM82 °FPartly sunny.10 mph45%30.07 "HgN/A
11:00 AM79 °FPartly sunny.8 mph51%30.07 "HgN/A
10:00 AM77 °FBroken clouds.7 mph54%30.09 "HgN/A
9:00 AM81 °FBroken clouds.5 mph48%30.09 "HgN/A
8:00 AM73 °FBroken clouds.5 mph65%30.09 "HgN/A
7:00 AM72 °FPartly sunny.5 mph73%30.07 "HgN/A
6:00 AM68 °FScattered clouds.3 mph83%30.07 "HgN/A
5:00 AM66 °FPartly sunny.5 mph88%30.04 "HgN/A
4:00 AM66 °FPassing clouds.5 mph83%30.04 "HgN/A
2:00 AM70 °FPassing clouds.5 mph78%30.04 "HgN/A
12:00 AM72 °FPassing clouds.5 mph73%30.07 "HgN/A
11:00 PM
Oct 24
70 °FPassing clouds.5 mph78%30.07 "HgN/A
10:00 PM72 °FPassing clouds.9 mph73%30.04 "HgN/A
9:00 PM72 °FPassing clouds.9 mph73%30.04 "HgN/A
8:00 PM72 °FPassing clouds.8 mph73%30.04 "HgN/A
Weather by CustomWeather, © 2014

See weather overviewHow to use our weather pages